Regional Weather Roundup
Issued by NWS Newport/Morehead, NC

Current Version | Previous Version | Graphics & Text | Print | Product List | Glossary On
Versions: 1 2 3 4 5 6 7 8 9 10 11 12 13 14 15 16 17 18 19 20 21 22 23 24 25 26 27 28 29 30 31 32 33 34 35 36 37 38 39 40 41 42 43 44 45 46 47 48 49 50
237 ASUS42 KMHX 142225 RWRMHX WEATHER ROUNDUP FOR EASTERN NORTH CAROLINA NATIONAL WEATHER SERVICE NEWPORT/MOREHEAD CITY NC 500 PM EST SUN FEB 14 2016 NOTE: "FAIR" INDICATES FEW OR NO CLOUDS BELOW 12,000 FEET WITH NO SIGNIFICANT WEATHER AND/OR OBSTRUCTIONS TO VISIBILITY NCZ015>017-031-032-045>047-102-103-142300- NORTH COAST CITY SKY/WX TMP DP RH WIND PRES REMARKS EDENTON CLOUDY 28 10 46 SE8 30.53R ELIZABETH CITY CLEAR 25 9 50 E6 30.53R KITTY HAWK PTCLDY 24 12 59 N3 30.52R MANTEO PTCLDY 24 14 66 NE7 30.54R $$ NCZ045>047-081-094-103-104-142300- CENTRAL COAST CITY SKY/WX TMP DP RH WIND PRES REMARKS FRISCO CLOUDY 27 15 61 NE8 30.53R SWANQUARTER N/A 27 N/A N/A NE2 30.50S $$ NCZ095-097-098-100-101-142300- SOUTHERN COAST CITY SKY/WX TMP DP RH WIND PRES REMARKS BEAUFORT CLOUDY 28 7 41 NE8 30.52R CEDAR ISLAND N/A 27 N/A N/A NE6G14 30.56S JACKSONVILLE CLOUDY 32 2 27 CALM 30.49R PINEY ISLAND CLOUDY N/A N/A N/A N6 30.52R WILMINGTON CLOUDY 33 9 36 E7 30.48R $$ NCZ011>013-027>030-043-044-078>080-089-090>093-098-142300- COASTAL PLAIN CITY SKY/WX TMP DP RH WIND PRES REMARKS AHOSKIE CLOUDY 27 -2 28 CALM 30.51S CLINTON PTCLDY 31 6 34 CALM 30.48S ELIZABETHTOWN MOSUNNY 33 3 27 NE3 30.45F GOLDSBORO CLOUDY 28 1 31 E2 30.48R GREENVILLE PTCLDY 30 1 29 CALM 30.50S HAVELOCK PTCLDY 29 7 39 E8 30.52R KENANSVILLE MOCLDY 31 2 29 CALM 30.49S KINSTON CLOUDY 30 3 31 NE3 30.50S NEW BERN CLOUDY 29 3 33 E7 30.52R RICHLANDS CLOUDY 32 1 27 CALM 30.49S ROCKY MOUNT MOCLDY 28 0 29 CALM 30.49S WASHINGTON CLOUDY 27 6 40 E7 30.51S WHITEVILLE MOSUNNY 34 3 27 E8 30.44F $$ AMZ130-135-150-152-154-156-158-170-250-252-270-ANZ085-086-088-633-658-670-142300- MARINE OBSERVATIONS STATION/POSITION TIME TEMP WIND PRES WAVE SWELL AIR SEA DIR/SP/G HT/PER HT/PER (UTC) (F) (DEG/KT/KT) (MB) (FT/S) (FT/S) CHESAPEAKE LIGHT 2200 22 360/ 6/ 8 1034.6 64 E VA BEACH 2150 25 50 350/ 12/ 16 1033.3 5/ 7 5/ 7 DUCK 2200 24 1033.2 2 E DUCK 2111 41 N/A 4/ 7 OREGON INLET 2200 24 37 1033.9 13E OREGON INLT 2200 44 N/A 5/ 8 2/11 HATTERAS CG 2200 26 39 1033.2 DIAMOND BUOY 2150 31 71 10/ 14/ 21 1033.2 6/ 9 5/ 9 CAPE LOOKOUT 2200 27 10/ 9/ 11 1032.7 BEAUFORT LAB 2200 27 41 1032.3 30 SE NEW RVR IN 2208 33 59 1032.3 30 SE NEW RVR IN 2125 60 N/A 3/ 6 27 SE WRIGHTSVLE 2108 34 59 360/ 10/ 19 1030.7 5 SE WRIGHTSVLE 2108 33 50 90/ 10/ 16 1032.2 225 S CAPE HAT 2150 50 67 50/ 14/ 19 N/A 7/11 5/11 41 SE CHARLESTON 2150 49 68 70/ 19/ 23 1027.4 6/ 6 2/10 $$

USA.gov is the U.S. government's official web portal to all federal, state and local government web resources and services.